Showing default

DIADEME 1, 2674

Orbit data source: Space-Track

DIADEME 1, 2674 is a payload satellite owned by CNES (FR) in LEO that was launched on Wed, 08 Feb 1967 UTC via a DIAMANT A launch vehicle from the Hamma Guira Space Track Range (HGSTR). Payload-class satellites include a variety of spacecraft equipped with specific instruments for various scientific and technological missions. These include communications satellites like Starlink; space stations such as the ISS; scientific satellites like the Hubble; Earth observation satellites from companies like Planet Labs, Umbra, and HawkEye 360; GPS; miniature CubeSats for education and research; and military/defense satellites.

Loading next visibility...
Identifier
2674, 1967-011A
Orbit
LEO
Country
Flag of FRFR
Related business
Manufacturer
CNES
Mission
Spacecraft
Bus & Motor
D-1, Unknown motor
Mass
23 kg wet, 23 kg dry
Launch date (UTC)
1967-02-08 (59 years ago)
Launch vehicle
DIAMANT A
Launch site
Hamma Guira Space Track Range (HGSTR)
Object type
Payload
Rocket body
Debris
Shape & HBR
Unknown
Radar Cross Section
Medium (>0.1 m² and <1 m²)

Expand to show TLE details & history
Last TLE update: 10 hours ago

TLE from 10 hours ago
0 DIADEME 1
1  2674U 67011A   25291.00896123  .00012611  00000-0  14247-2 0  9993
2  2674  39.9134 184.9315 0215009  22.2014 338.7914 14.70941170 54388
Epoch: 2025-10-18T00:12Z
TLE epoch observation values (Epoch: 2025-10-18T00:12:54.250Z)
Latitude
0.00002°
Longitude
154.95934°
Altitude
516.936 km
Speed
7.682 km/s
True Right ascension
12h 19m 43s
True Declination
0° 00' 00"
Sunlit
Object was in daylight at epoch
Visualization orbit readout
Latitude
Unknown
Longitude
Unknown
Altitude
Unknown
Speed
Unknown
Apparent Right ascension
Unknown
Apparent Declination
Unknown
Sunlit
N/A
Visualization observer readout
Local Sidereal Time
04:57:38
Azimuth
Unknown
Elevation
Unknown
Doppler factor
Unknown
Orbital elements
Apogee altitude
811.802 km
Perigee altitude
509.129 km
Semi-major axis
7,038.603 km
Eccentricity
0.0215
Inclination
39.9134°
RAAN
184.9315°
Arg. of periapsis
22.2014°
True anomaly
337.87723°
Mean anomaly
338.7914°
Eccentric anomaly
338.33664°
Mean motion
3.67548 °/min
Orbital period
97.95 mins
BSTAR
0.0014247
Loading maneuver chart data...
Computing Atmospheric mass density...

Documentation

Showing up to 5 results
|